When you browse on this site, cookies collect data to enhance your experience and personalize the content and advertising you see.
Visit our Privacy Policy to learn more. By continuing to use the site, you agree to this use of cookies and data.
  • In Romania
  • List of Countries
  • For 7 days
  • Water Temperature
  • Satellite Maps
  • Weather Map
  • Weather Widgets
  • user-avatar
    Login

    Hourly Weather Kraskow

    Today, 26 May, Sunday

    Time Temperature Precipitation Wind Pressure Humidity
    00:00 +10°C° 0 mm 2 mps 745 mmHg 92%
    01:00 +10°C° 0 mm 2 mps 745 mmHg 94%
    02:00 +9°C° 0 mm 2 mps 745 mmHg 94%
    03:00 +10°C° 0 mm 1 mps 745 mmHg 94%
    04:00 +9°C° 0 mm 1 mps 745 mmHg 94%
    05:00 +11°C° 0 mm 1 mps 745 mmHg 90%
    06:00 +13°C° 0 mm 1 mps 745 mmHg 86%
    07:00 +14°C° 0 mm 1 mps 745 mmHg 82%
    08:00 +16°C° 0 mm 2 mps 745 mmHg 76%
    09:00 +17°C° 0 mm 2 mps 745 mmHg 69%
    10:00 +19°C° 0 mm 2 mps 744 mmHg 62%
    11:00 +20°C° 0 mm 3 mps 744 mmHg 60%
    12:00 +21°C° 0 mm 3 mps 744 mmHg 58%
    13:00 +22°C° 0 mm 3 mps 743 mmHg 55%
    14:00 +22°C° 0.1 mm 3 mps 743 mmHg 57%
    15:00 +22°C° 0.1 mm 3 mps 743 mmHg 58%
    16:00 +22°C° 0.1 mm 3 mps 742 mmHg 60%
    17:00 +21°C° 0.1 mm 2 mps 742 mmHg 66%
    18:00 +20°C° 0.1 mm 2 mps 742 mmHg 72%
    19:00 +19°C° 0.1 mm 1 mps 742 mmHg 78%
    20:00 +18°C° 0 mm 1 mps 742 mmHg 81%
    21:00 +16°C° 0 mm 2 mps 742 mmHg 84%
    22:00 +15°C° 0 mm 2 mps 742 mmHg 87%
    23:00 +14°C° 0 mm 2 mps 742 mmHg 87%

    Tomorrow, 27 May, Monday

    Time Temperature Precipitation Wind Pressure Humidity
    00:00 +14°C° 0 mm 2 mps 742 mmHg 88%
    01:00 +13°C° 0 mm 3 mps 741 mmHg 89%
    02:00 +12°C° 0 mm 3 mps 741 mmHg 89%
    03:00 +12°C° 0 mm 3 mps 741 mmHg 90%
    04:00 +12°C° 0 mm 3 mps 741 mmHg 90%
    05:00 +14°C° 0 mm 4 mps 741 mmHg 85%
    06:00 +17°C° 0 mm 4 mps 741 mmHg 80%
    07:00 +18°C° 0 mm 4 mps 741 mmHg 75%
    08:00 +20°C° 0 mm 4 mps 741 mmHg 68%
    09:00 +21°C° 0 mm 4 mps 741 mmHg 61%
    10:00 +23°C° 0 mm 4 mps 741 mmHg 54%
    11:00 +23°C° 0 mm 4 mps 740 mmHg 52%
    12:00 +25°C° 0 mm 4 mps 740 mmHg 49%
    13:00 +26°C° 0 mm 3 mps 740 mmHg 47%
    14:00 +26°C° 0 mm 3 mps 740 mmHg 49%
    15:00 +26°C° 0 mm 3 mps 740 mmHg 51%
    16:00 +26°C° 0 mm 2 mps 739 mmHg 53%
    17:00 +24°C° 0.2 mm 2 mps 739 mmHg 63%
    18:00 +21°C° 0.2 mm 2 mps 739 mmHg 73%
    19:00 +20°C° 0.2 mm 1 mps 739 mmHg 82%
    20:00 +19°C° 0.3 mm 1 mps 739 mmHg 85%
    21:00 +19°C° 0.3 mm 1 mps 739 mmHg 87%
    22:00 +16°C° 0.3 mm 0 mps 739 mmHg 90%
    23:00 +18°C° 1 mm 1 mps 738 mmHg 91%

    Day after tomorrow, 28 May, Tuesday

    Time Temperature Precipitation Wind Pressure Humidity
    00:00 +18°C° 1 mm 1 mps 738 mmHg 92%
    01:00 +16°C° 1 mm 1 mps 738 mmHg 93%
    02:00 +16°C° 2.9 mm 1 mps 737 mmHg 94%
    03:00 +15°C° 2.9 mm 0 mps 737 mmHg 95%
    04:00 +15°C° 2.9 mm 0 mps 736 mmHg 95%
    05:00 +16°C° 2.3 mm 1 mps 736 mmHg 96%
    06:00 +16°C° 2.3 mm 1 mps 736 mmHg 96%
    07:00 +16°C° 2.3 mm 1 mps 736 mmHg 96%
    08:00 +15°C° 1.6 mm 2 mps 736 mmHg 96%
    09:00 +14°C° 1.6 mm 3 mps 736 mmHg 96%
    10:00 +14°C° 1.6 mm 3 mps 736 mmHg 96%
    11:00 +13°C° 0.7 mm 4 mps 736 mmHg 96%
    12:00 +13°C° 0.7 mm 5 mps 736 mmHg 96%
    13:00 +12°C° 0.7 mm 5 mps 736 mmHg 95%
    14:00 +12°C° 0.4 mm 5 mps 736 mmHg 95%
    15:00 +11°C° 0.4 mm 6 mps 737 mmHg 95%
    16:00 +10°C° 0.4 mm 6 mps 737 mmHg 94%
    17:00 +10°C° 0.6 mm 5 mps 737 mmHg 94%
    18:00 +10°C° 0.6 mm 5 mps 737 mmHg 95%
    19:00 +10°C° 0.6 mm 5 mps 738 mmHg 95%
    20:00 +10°C° 0 mm 4 mps 738 mmHg 96%
    21:00 +10°C° 0 mm 3 mps 738 mmHg 96%
    22:00 +10°C° 0 mm 3 mps 739 mmHg 97%
    23:00 +10°C° 0 mm 3 mps 739 mmHg 97%

    29 May, Wednesday

    Time Temperature Precipitation Wind Pressure Humidity
    00:00 +10°C° 0 mm 3 mps 739 mmHg 97%
    01:00 +10°C° 0 mm 3 mps 739 mmHg 97%
    02:00 +10°C° 0 mm 2 mps 740 mmHg 97%
    03:00 +9°C° 0 mm 2 mps 740 mmHg 98%
    04:00 +9°C° 0 mm 2 mps 740 mmHg 98%
    05:00 +10°C° 0 mm 2 mps 741 mmHg 97%
    06:00 +10°C° 0 mm 2 mps 741 mmHg 95%
    07:00 +12°C° 0 mm 2 mps 741 mmHg 94%
    08:00 +12°C° 0 mm 3 mps 741 mmHg 90%
    09:00 +12°C° 0 mm 3 mps 742 mmHg 86%
    10:00 +13°C° 0 mm 3 mps 742 mmHg 82%
    11:00 +14°C° 0.1 mm 3 mps 742 mmHg 78%
    12:00 +14°C° 0.1 mm 3 mps 742 mmHg 75%
    13:00 +14°C° 0.1 mm 3 mps 743 mmHg 71%
    14:00 +15°C° 0.1 mm 2 mps 743 mmHg 72%
    15:00 +15°C° 0.1 mm 2 mps 743 mmHg 72%
    16:00 +15°C° 0.1 mm 2 mps 743 mmHg 73%
    17:00 +15°C° 0.1 mm 1 mps 744 mmHg 77%
    18:00 +14°C° 0.1 mm 1 mps 744 mmHg 81%
    19:00 +12°C° 0.1 mm 0 mps 744 mmHg 85%
    20:00 +12°C° 0 mm 0 mps 745 mmHg 86%
    21:00 +12°C° 0 mm 1 mps 745 mmHg 88%
    22:00 +12°C° 0 mm 1 mps 746 mmHg 89%
    23:00 +11°C° 0.1 mm 1 mps 746 mmHg 90%

    30 May, Thursday

    Time Temperature Precipitation Wind Pressure Humidity
    00:00 +10°C° 0.1 mm 2 mps 746 mmHg 92%
    01:00 +9°C° 0.1 mm 2 mps 746 mmHg 93%
    02:00 +9°C° 0 mm 2 mps 747 mmHg 94%
    03:00 +8°C° 0 mm 2 mps 747 mmHg 94%
    04:00 +8°C° 0 mm 2 mps 747 mmHg 94%
    05:00 +8°C° 0.1 mm 3 mps 748 mmHg 92%
    06:00 +8°C° 0.1 mm 3 mps 748 mmHg 90%
    07:00 +8°C° 0.1 mm 3 mps 748 mmHg 88%
    08:00 +8°C° 0.2 mm 3 mps 749 mmHg 86%
    09:00 +9°C° 0.2 mm 3 mps 749 mmHg 85%
    10:00 +9°C° 0.2 mm 3 mps 749 mmHg 83%
    11:00 +9°C° 0.5 mm 2 mps 749 mmHg 83%
    12:00 +10°C° 0.5 mm 2 mps 749 mmHg 83%
    13:00 +11°C° 0.5 mm 1 mps 749 mmHg 83%
    14:00 +12°C° 0 mm 1 mps 749 mmHg 78%
    15:00 +14°C° 0 mm 1 mps 749 mmHg 72%
    16:00 +15°C° 0 mm 1 mps 749 mmHg 67%
    17:00 +15°C° 0 mm 1 mps 749 mmHg 72%
    18:00 +14°C° 0 mm 1 mps 750 mmHg 76%
    19:00 +13°C° 0 mm 1 mps 750 mmHg 81%
    20:00 +12°C° 0 mm 1 mps 750 mmHg 83%
    21:00 +10°C° 0 mm 2 mps 750 mmHg 86%
    22:00 +9°C° 0 mm 2 mps 750 mmHg 89%
    23:00 +8°C° 0 mm 2 mps 751 mmHg 89%

    31 May, Friday

    Time Temperature Precipitation Wind Pressure Humidity
    00:00 +8°C° 0 mm 2 mps 751 mmHg 89%
    01:00 +8°C° 0 mm 3 mps 751 mmHg 89%
    02:00 +8°C° 0 mm 3 mps 751 mmHg 88%
    03:00 +9°C° 0 mm 3 mps 751 mmHg 87%
    04:00 +9°C° 0 mm 3 mps 751 mmHg 86%
    05:00 +11°C° 0 mm 3 mps 751 mmHg 83%
    06:00 +12°C° 0 mm 3 mps 752 mmHg 81%
    07:00 +13°C° 0 mm 3 mps 752 mmHg 79%
    08:00 +14°C° 0.1 mm 3 mps 752 mmHg 74%
    09:00 +16°C° 0.1 mm 3 mps 752 mmHg 70%
    10:00 +17°C° 0.1 mm 3 mps 752 mmHg 66%
    11:00 +18°C° 0.1 mm 3 mps 752 mmHg 64%
    12:00 +18°C° 0.1 mm 3 mps 752 mmHg 63%
    13:00 +19°C° 0.1 mm 3 mps 752 mmHg 62%
    14:00 +19°C° 0.1 mm 3 mps 752 mmHg 62%
    15:00 +19°C° 0.1 mm 2 mps 752 mmHg 63%
    16:00 +19°C° 0.1 mm 2 mps 752 mmHg 64%
    17:00 +18°C° 0 mm 2 mps 752 mmHg 68%
    18:00 +18°C° 0 mm 1 mps 752 mmHg 73%
    19:00 +16°C° 0 mm 1 mps 752 mmHg 77%
    20:00 +15°C° 0 mm 1 mps 752 mmHg 81%
    21:00 +14°C° 0 mm 2 mps 752 mmHg 85%
    22:00 +12°C° 0 mm 2 mps 752 mmHg 89%
    23:00 +12°C° 0 mm 2 mps 752 mmHg 90%
    Show more